When you browse on this site, cookies collect data to enhance your experience and personalize the content and advertising you see.
Visit our Privacy Policy to learn more. By continuing to use the site, you agree to this use of cookies and data.
  • In Österreich
  • Länderverzeichnis
  • Für 7 Tage
  • Wassertemperatur
  • Wetterkarte
  • News
  • Widgets
  • user-avatar
    Anmelden

    Stündliche Wetter Granica

    Heute, 20 August, Dienstag

    Zeit Temperatur Niederschläge Wind Luftdruck Luftfeuchtigkeit
    00:00 +20°C° 0 mm 1 m/S 755 mmHg 85%
    01:00 +20°C° 0 mm 1 m/S 755 mmHg 86%
    02:00 +20°C° 0 mm 1 m/S 756 mmHg 86%
    03:00 +20°C° 0 mm 1 m/S 756 mmHg 87%
    04:00 +19°C° 0 mm 1 m/S 756 mmHg 87%
    05:00 +20°C° 0 mm 1 m/S 756 mmHg 83%
    06:00 +21°C° 0 mm 1 m/S 756 mmHg 79%
    07:00 +22°C° 0 mm 1 m/S 757 mmHg 75%
    08:00 +23°C° 0 mm 1 m/S 757 mmHg 67%
    09:00 +25°C° 0 mm 2 m/S 757 mmHg 60%
    10:00 +26°C° 0 mm 2 m/S 757 mmHg 52%
    11:00 +27°C° 0 mm 2 m/S 757 mmHg 48%
    12:00 +28°C° 0 mm 2 m/S 757 mmHg 45%
    13:00 +28°C° 0 mm 2 m/S 757 mmHg 41%
    14:00 +28°C° 0 mm 2 m/S 757 mmHg 42%
    15:00 +28°C° 0 mm 2 m/S 757 mmHg 42%
    16:00 +28°C° 0 mm 3 m/S 756 mmHg 43%
    17:00 +27°C° 0 mm 3 m/S 756 mmHg 48%
    18:00 +25°C° 0 mm 3 m/S 756 mmHg 53%
    19:00 +24°C° 0 mm 3 m/S 756 mmHg 58%
    20:00 +22°C° 0.4 mm 3 m/S 756 mmHg 62%
    21:00 +21°C° 0.4 mm 4 m/S 756 mmHg 66%
    22:00 +21°C° 0.4 mm 4 m/S 756 mmHg 70%
    23:00 +20°C° 1.7 mm 4 m/S 756 mmHg 77%

    Morgen, 21 August, Mittwoch

    Zeit Temperatur Niederschläge Wind Luftdruck Luftfeuchtigkeit
    00:00 +19°C° 1.7 mm 5 m/S 756 mmHg 83%
    01:00 +17°C° 1.7 mm 5 m/S 756 mmHg 89%
    02:00 +16°C° 0.5 mm 5 m/S 756 mmHg 90%
    03:00 +16°C° 0.5 mm 5 m/S 756 mmHg 90%
    04:00 +16°C° 0.5 mm 6 m/S 756 mmHg 90%
    05:00 +16°C° 0.2 mm 6 m/S 756 mmHg 89%
    06:00 +16°C° 0.2 mm 6 m/S 756 mmHg 88%
    07:00 +16°C° 0.2 mm 6 m/S 757 mmHg 87%
    08:00 +16°C° 0 mm 6 m/S 757 mmHg 85%
    09:00 +16°C° 0 mm 6 m/S 758 mmHg 82%
    10:00 +16°C° 0 mm 5 m/S 758 mmHg 80%
    11:00 +16°C° 0.1 mm 5 m/S 758 mmHg 79%
    12:00 +16°C° 0.1 mm 5 m/S 759 mmHg 79%
    13:00 +16°C° 0.1 mm 5 m/S 759 mmHg 78%
    14:00 +17°C° 0 mm 5 m/S 759 mmHg 75%
    15:00 +18°C° 0 mm 4 m/S 759 mmHg 72%
    16:00 +19°C° 0 mm 4 m/S 760 mmHg 69%
    17:00 +18°C° 0 mm 3 m/S 760 mmHg 72%
    18:00 +17°C° 0 mm 3 m/S 760 mmHg 76%
    19:00 +16°C° 0 mm 2 m/S 760 mmHg 79%
    20:00 +16°C° 0 mm 1 m/S 760 mmHg 81%
    21:00 +16°C° 0 mm 1 m/S 761 mmHg 83%
    22:00 +15°C° 0 mm 1 m/S 761 mmHg 84%
    23:00 +15°C° 0 mm 1 m/S 761 mmHg 85%

    übermorgen, 22 August, Donnerstag

    Zeit Temperatur Niederschläge Wind Luftdruck Luftfeuchtigkeit
    00:00 +15°C° 0 mm 1 m/S 761 mmHg 87%
    01:00 +14°C° 0 mm 1 m/S 761 mmHg 88%
    02:00 +14°C° 0 mm 1 m/S 761 mmHg 88%
    03:00 +14°C° 0 mm 1 m/S 761 mmHg 89%
    04:00 +14°C° 0 mm 1 m/S 761 mmHg 90%
    05:00 +15°C° 0 mm 1 m/S 761 mmHg 86%
    06:00 +16°C° 0 mm 1 m/S 762 mmHg 81%
    07:00 +18°C° 0 mm 1 m/S 762 mmHg 77%
    08:00 +19°C° 0 mm 1 m/S 762 mmHg 71%
    09:00 +20°C° 0 mm 2 m/S 762 mmHg 65%
    10:00 +21°C° 0 mm 2 m/S 762 mmHg 59%
    11:00 +23°C° 0 mm 2 m/S 762 mmHg 56%
    12:00 +24°C° 0 mm 2 m/S 761 mmHg 53%
    13:00 +24°C° 0 mm 2 m/S 761 mmHg 49%
    14:00 +24°C° 0 mm 2 m/S 761 mmHg 49%
    15:00 +24°C° 0 mm 2 m/S 761 mmHg 49%
    16:00 +24°C° 0 mm 2 m/S 760 mmHg 49%
    17:00 +23°C° 0 mm 2 m/S 760 mmHg 54%
    18:00 +21°C° 0 mm 2 m/S 761 mmHg 59%
    19:00 +19°C° 0 mm 2 m/S 761 mmHg 64%
    20:00 +19°C° 0 mm 2 m/S 761 mmHg 66%
    21:00 +18°C° 0 mm 2 m/S 761 mmHg 67%
    22:00 +17°C° 0 mm 2 m/S 761 mmHg 69%
    23:00 +17°C° 0 mm 2 m/S 761 mmHg 71%

    23 August, Freitag

    Zeit Temperatur Niederschläge Wind Luftdruck Luftfeuchtigkeit
    00:00 +16°C° 0 mm 2 m/S 761 mmHg 72%
    01:00 +16°C° 0 mm 2 m/S 761 mmHg 74%
    02:00 +15°C° 0 mm 2 m/S 761 mmHg 76%
    03:00 +15°C° 0 mm 1 m/S 761 mmHg 78%
    04:00 +15°C° 0 mm 1 m/S 761 mmHg 80%
    05:00 +16°C° 0 mm 1 m/S 762 mmHg 76%
    06:00 +17°C° 0 mm 2 m/S 762 mmHg 71%
    07:00 +18°C° 0 mm 2 m/S 762 mmHg 67%
    08:00 +20°C° 0 mm 2 m/S 762 mmHg 61%
    09:00 +21°C° 0 mm 2 m/S 762 mmHg 55%
    10:00 +24°C° 0 mm 2 m/S 762 mmHg 49%
    11:00 +25°C° 0 mm 3 m/S 762 mmHg 46%
    12:00 +26°C° 0 mm 3 m/S 762 mmHg 43%
    13:00 +26°C° 0 mm 3 m/S 761 mmHg 40%
    14:00 +26°C° 0 mm 3 m/S 761 mmHg 40%
    15:00 +26°C° 0 mm 3 m/S 761 mmHg 41%
    16:00 +26°C° 0 mm 3 m/S 761 mmHg 42%
    17:00 +25°C° 0 mm 3 m/S 761 mmHg 47%
    18:00 +22°C° 0 mm 3 m/S 761 mmHg 52%
    19:00 +20°C° 0 mm 2 m/S 761 mmHg 57%
    20:00 +19°C° 0 mm 2 m/S 761 mmHg 59%
    21:00 +19°C° 0 mm 3 m/S 761 mmHg 61%
    22:00 +18°C° 0 mm 3 m/S 761 mmHg 64%
    23:00 +17°C° 0 mm 2 m/S 761 mmHg 67%

    24 August, Samstag

    Zeit Temperatur Niederschläge Wind Luftdruck Luftfeuchtigkeit
    00:00 +17°C° 0 mm 2 m/S 761 mmHg 70%
    01:00 +16°C° 0 mm 2 m/S 761 mmHg 73%
    02:00 +16°C° 0 mm 2 m/S 761 mmHg 74%
    03:00 +15°C° 0 mm 2 m/S 760 mmHg 76%
    04:00 +15°C° 0 mm 2 m/S 760 mmHg 77%
    05:00 +16°C° 0 mm 3 m/S 760 mmHg 74%
    06:00 +17°C° 0 mm 3 m/S 760 mmHg 71%
    07:00 +18°C° 0 mm 3 m/S 760 mmHg 68%
    08:00 +20°C° 0 mm 4 m/S 760 mmHg 62%
    09:00 +22°C° 0 mm 4 m/S 760 mmHg 55%
    10:00 +25°C° 0 mm 4 m/S 760 mmHg 49%
    11:00 +26°C° 0 mm 4 m/S 759 mmHg 47%
    12:00 +27°C° 0 mm 4 m/S 759 mmHg 45%
    13:00 +28°C° 0 mm 4 m/S 758 mmHg 43%
    14:00 +27°C° 0 mm 4 m/S 758 mmHg 44%
    15:00 +27°C° 0 mm 4 m/S 758 mmHg 46%
    16:00 +27°C° 0 mm 4 m/S 757 mmHg 47%
    17:00 +26°C° 0 mm 4 m/S 757 mmHg 54%
    18:00 +23°C° 0 mm 4 m/S 757 mmHg 60%
    19:00 +22°C° 0 mm 3 m/S 757 mmHg 66%
    20:00 +21°C° 0 mm 3 m/S 757 mmHg 68%
    21:00 +20°C° 0 mm 3 m/S 757 mmHg 70%
    22:00 +20°C° 0 mm 3 m/S 757 mmHg 72%
    23:00 +19°C° 0 mm 3 m/S 756 mmHg 73%

    25 August, Sonntag

    Zeit Temperatur Niederschläge Wind Luftdruck Luftfeuchtigkeit
    00:00 +19°C° 0 mm 3 m/S 756 mmHg 75%
    01:00 +19°C° 0 mm 3 m/S 756 mmHg 77%
    02:00 +18°C° 0 mm 3 m/S 756 mmHg 77%
    03:00 +18°C° 0 mm 3 m/S 756 mmHg 78%
    04:00 +17°C° 0 mm 3 m/S 755 mmHg 79%
    05:00 +18°C° 0 mm 3 m/S 755 mmHg 75%
    06:00 +19°C° 0 mm 3 m/S 755 mmHg 71%
    07:00 +20°C° 0 mm 3 m/S 755 mmHg 66%
    08:00 +22°C° 0 mm 3 m/S 755 mmHg 61%
    09:00 +25°C° 0 mm 3 m/S 755 mmHg 56%
    10:00 +27°C° 0 mm 3 m/S 755 mmHg 50%
    11:00 +28°C° 0 mm 2 m/S 755 mmHg 48%
    12:00 +30°C° 0 mm 2 m/S 754 mmHg 46%
    13:00 +31°C° 0 mm 2 m/S 754 mmHg 44%
    14:00 +31°C° 0 mm 2 m/S 754 mmHg 44%
    15:00 +31°C° 0 mm 2 m/S 754 mmHg 44%
    16:00 +32°C° 0 mm 1 m/S 753 mmHg 44%
    17:00 +30°C° 0.1 mm 2 m/S 753 mmHg 50%
    18:00 +28°C° 0.1 mm 2 m/S 753 mmHg 56%
    19:00 +26°C° 0.1 mm 3 m/S 753 mmHg 62%
    20:00 +25°C° 0.3 mm 3 m/S 753 mmHg 66%
    21:00 +24°C° 0.3 mm 3 m/S 753 mmHg 70%
    22:00 +22°C° 0.3 mm 3 m/S 754 mmHg 74%
    23:00 +23°C° 0.1 mm 2 m/S 753 mmHg 77%
    Mehr zeigen